Regional Weather Roundup
Issued by NWS Wakefield, VA

Home | Current Version | Previous Version | Text Only | Print | Product List | Glossary Off
Versions: 1 2 3 4 5 6 7 8 9 10 11 12 13 14 15 16 17 18 19 20 21 22 23 24 25 26 27 28 29 30 31 32 33 34 35 36 37 38 39 40 41 42 43 44 45 46 47 48 49 50

000
ASUS41 KAKQ 190710
RWRAKQ

REGIONAL WEATHER ROUNDUP
NATIONAL WEATHER SERVICE WAKEFIELD VA
300 AM EDT FRI SEP 19 2014

Note: "fair" indicates few or no clouds below 12,000 feet with no
significant weather and/or obstructions to visibility. * = Denotes
station may not report precipitation (e.g., rain,snow,etc.),
thunder or fog.

VAZ042-051-052>054-056-190800-
NORTHERN VIRGINIA

CITY           SKY/WX    TMP DP  RH WIND       PRES   REMARKS
WASH NATIONAL  CLEAR     64  59  83 N5        30.14R
DULLES         CLEAR     55  52  89 NW3       30.14R
FORT BELVOIR   CLEAR     57  56  95 NW1       30.14R
QUANTICO       PTCLDY    61  58  90 NW7       30.14R
FREDERICKSBRG* CLOUDY    60  60 100 CALM      30.12S
STAFFORD*      FOG       53  53 100 CALM      30.17S VSB 1
WARRENTON      MOCLDY    54  54 100 CALM      30.13R FOG
CULPEPER*      PTCLDY    55  54  94 CALM      30.15R FOG
MANASSAS*      MOCLDY    57  57 100 NW3       30.14S
LEESBURG*      CLEAR     54  54 100 CALM      30.16R
WINCHESTER     CLOUDY    52  48  87 SE3       30.16R
FRONT ROYAL*   PTSUNNY   52  50  93 CALM      30.14F
LURAY*         CLOUDY    59  54  82 N5        30.15S
$$

VAZ048-049-060>072-079>083-190800-
CENTRAL AND SOUTH CENTRAL VIRGINIA...AND NORTH CENTRAL NORTH CAROLINA

CITY           SKY/WX    TMP DP  RH WIND       PRES   REMARKS
RICHMOND       MOCLDY    62  58  86 CALM      30.12R
CHESTERFIELD*  CLOUDY   N/A N/A N/A CALM      30.13R
PETERSBURG*    CLOUDY    60  59  94 CALM      30.12R
HANOVER        CLOUDY    59  58  96 CALM      30.14R
TAPPAHANNOCK*  PTCLDY    57  55  94 CALM      30.13S FOG
CHARLOTTSVILLE CLOUDY    62  57  83 NE5       30.13R
ORANGE*        CLOUDY    59  57  94 CALM      30.14S
LOUISA*        CLOUDY    61  61 100 CALM      30.12S FOG
FARMVILLE*     HVY RAIN  64  63  94 CALM      30.10R
CREWE*         CLOUDY    63  60  91 CALM      30.11R
FORT PICKETT*  CLOUDY    63  59  88 CALM      30.11S
LUNENBURG*     CLOUDY    62  60  93 CALM      30.11R
SOUTH HILL*    CLOUDY    63  63 100 CALM      30.16S
LAWRENCEVILLE* CLOUDY    62  60  95 CALM      30.11R
ROANOKE RAPIDS CLOUDY    59  59 100 CALM      30.10S
RALEIGH        PTCLDY    66  59  78 SE6       30.09S
$$

VAZ088>098-190800-
SOUTHEAST VIRGINIA

CITY           SKY/WX    TMP DP  RH WIND       PRES   REMARKS
NORFOLK        MOCLDY    66  59  78 CALM      30.10S
VIRGINIA BEACH PTCLDY    63  57  81 CALM      30.10R
NORFOLK NAVAL  MOCLDY    66  59  78 CALM      30.12R
WEST POINT*    MOCLDY    60  57  92 CALM      30.13S
NEWPORT NEWS   CLOUDY    65  59  81 CALM      30.11R
LANGLEY AFB    MOCLDY    62  62  98 CALM      30.10S
FORT EUSTIS    CLOUDY    65  65 100 CALM      30.10R
WILLIAMSBURG*  CLOUDY    64  63  94 CALM      30.12S
HR EXEC AP*    MOSUNNY   57  54  88 CALM      30.12S
FRANKLIN*      MOCLDY    59  57  94 CALM      30.11R
WAKEFIELD      MOCLDY    62  59  90 CALM      30.11R
$$

VAZ020-022-025-037-045-190800-
WEST CENTRAL AND SOUTHWEST VIRGINIA

CITY           SKY/WX    TMP DP  RH WIND       PRES   REMARKS
STAUNTON*      CLOUDY    62  52  70 N5        30.17S
HOT SPRINGS VA CLOUDY    53  40  61 E6        30.21S
LYNCHBURG      MOCLDY    63  62  97 NE6       30.13S
DANVILLE       MOCLDY    67  62  84 CALM      30.10R
SOUTH BOSTON*  NOT AVBL
MARTINSVILLE   MOCLDY    64  64 100 CALM      30.13R FOG
ROANOKE        CLOUDY    63  60  90 CALM      30.14R
BLACKSBURG     LGT RAIN  61  61 100 CALM      30.16S
DUBLIN*        CLOUDY    58  58  99 CALM      30.16R
MARION*        CLOUDY    60  57  89 CALM      30.17R
HILLSVILLE*    CLOUDY    59  58  96 CALM      30.15S
RICHLANDS*     SUNNY     59  56  88 NE6       30.14R
WISE*          CLEAR     55  54  94 CALM      30.15S
ABINGDON*      CLEAR     59  56  89 CALM      30.11S
$$

MDZ021>025-VAZ099-100-190800-
SOUTHERN MARYLAND AND THE DELMARVA PENINSULA

CITY           SKY/WX    TMP DP  RH WIND       PRES   REMARKS
PATUXENT RIVER CLEAR     58  56  93 SW5       30.12R
BAY BRIDGE APT   N/A     59  55  88 CALM      30.13R
LEONARDTOWN    CLEAR     55  52  88 CALM      30.14R
DOVER          CLEAR     55  54  94 NW8       30.10R
GEORGETOWN     CLEAR     58  55  90 CALM      30.12S
EASTON         CLEAR     58  58 100 CALM      30.16S
CAMBRIDGE        N/A     55  54  94 CALM      30.12R
SALISBURY      CLEAR     61  57  87 CALM      30.12R
OCEAN CITY     PTCLDY    57  54  89 CALM      30.12R
WALLOPS ISLAND PTCLDY    62  58  86 NW3       30.13R
ACCOMACK*      CLOUDY    59  55  88 CALM      30.12R
$$

NCZ012>017-030>032-190800-
EASTERN NORTH CAROLINA

CITY           SKY/WX    TMP DP  RH WIND       PRES   REMARKS
ELIZABETH CITY PTCLDY    60  58  92 CALM      30.09S
AHOSKIE*       CLOUDY    58  57  94 CALM      30.10S
EDENTON*       CLEAR     60  58  95 CALM      30.09F
CURRITUCK*     CLEAR     63  59  87 CALM      30.10S
KILL DEVIL HLS CLEAR     70  57  63 E7        30.07F
MANTEO         CLEAR     68  58  68 E5        30.08F
CAPE HATTERAS  CLEAR     68  62  81 NE5       30.07R
TARBORO*       CLOUDY    59  58  96 CALM      30.11R
GOLDSBORO      CLEAR     63  62  98 CALM      30.06F
WASHINGTON     PTCLDY    58  56  93 CALM      30.09S
GREENVILLE     CLEAR     63  59  88 CALM      30.09F
NEW BERN       MOCLDY    67  60  78 NE7       30.08S
WILMINGTON     PTCLDY    66  62  87 NE8       30.03F
$$

VAZ048-190800-
ELSEWHERE

CITY           SKY/WX    TMP DP  RH WIND       PRES   REMARKS
HARRISBURG PA  PTCLDY    53  48  83 NW6       30.17R
BALTIMORE      PTCLDY    55  54  96 CALM      30.13S
ANNAPOLIS      CLEAR     64  61  90 N6        30.12R FOG
ANDREWS AFB    CLEAR     54  54 100 N5        30.13R
WILMINGTON DE  CLEAR     58  51  78 N10       30.15R
PHILADELPHIA   CLEAR     60  49  66 N12       30.14R
WILDWOOD NJ*   CLEAR     55  52  88 CALM      30.13R
ATLANTIC CITY  MOCLDY    56  53  90 NW3       30.12R
HENDERSON NC   MOCLDY    63  56  78 CALM      30.10S
GREENSBORO     CLOUDY    68  62  81 SE7       30.08S
ROCKY MOUNT    CLEAR     59  56  89 CALM      30.09S
FAYETTEVILLE   CLOUDY    65  60  84 E3        30.06R
CHARLOTTE      CLOUDY    66  64  94 SE13      30.08R
$$

VAZ100-190800-
MARINE

STATION/POSITION TIME  TEMP    WIND        PRES    WAVE   SWELL
                       AIR SEA DIR/SP/G            HT/PER HT/PER
                 (UTC) (F)     (DEG/KT/KT) (MB)    (FT/S) (FT/S)
44066 TX TWR #4  0700   70 72  330/  8/ 10 1019.2R   3/ 9   2/ 9
CAPE MAY NJ      0700   68 75  290/  4/  7 1019.1R
LEWES DE         0700   62 73  250/  3/  4 1019.4F
15NM E FENWICK I 0700   70 72              1019.5R   3/11
OCEAN-CITY-INLET 0700   65 72  360/  3/  4 1019.2S
WACHAPREAGUE VA  0700   63 74   CALM  /  2 1019.6S
THOMAS POINT MD  0700   66 74  360/  8/  8 1020.9R
GOOSES REEF MD   0700   69        CALM     1020.3S
COVE POINT MD    0700   66     280/  2/  2 1019.8R
SOLOMONS ISLAND  0700      76                N/A
BISHOPS HEAD MD  0700   70 73  170/  5/  7 1019.2S
PINEY POINT MD   0700           60/  4/  4   N/A
POTOMAC MD       0700   70      40/  2/  2 1019.1S
CAMBRIDGE MD     0700   63 74  240/  2/  2 1019.5R
LEWISETTA VA     0700   65 74  240/  3/  4 1019.5R
RAPPAHANNOCK LGT 0700          110/  3/  4 1020.2R
STINGRAY PT      0700   71     160/  6/ 10   N/A
YORK RVR RNG VA  0700   71     250/  3/  4 1019.0S
YORKTOWN VA      0700   67 76  210/  4/  4 1019.1S
JAMESTOWN VA     0700   72     180/  4/  4   N/A
DOMINION TERM VA 0700   71     130/  3/  4 1019.4S
KIPTOPEKE VA     0700      79   80/  3/  4   N/A
CHES BAY BRIDGE  0700   71 75  110/  6/  9 1018.7S
CAPE HENRY VA    0700   70     110/  6/  8 1018.0S
CHESAPEAKE LGHT  0600   71     110/  8/  9 1019.7R
WILLOUBY STN VA  0700   70      20/  2/  2 1018.1S
S CRANEY ISL VA  0700           CALM  /  1 1019.1S
CAPE HENRY BUOY  0700      75                N/A     3/10   2/11
1ST LANDING BUOY 0700   72     120/  8/ 10 1018.9R
CAPE CHARLES BUO 0700      74                N/A     3/12   3/12
OFFSHORE WE BUOY 0700      74                N/A     3/12   3/12
64NM E OF VA BCH 0700   72 75   60/ 10/ 14 1018.6R   4/11   3/11
DUCK PIER NC     0700   72 75   80/ 10/ 13 1018.1S
44100 DUCK FRF   0700      74                N/A     4/11   2/11
44056 DUCK FRF   0700                        N/A     3/12   2/12
OREGON INLET NC  0700   71 73   50/  8/ 11 1018.5F
HATTERAS NC      0700   72 76   40/  8/ 10 1018.3S
DIAMOND SHLS NC  0700   74      20/ 14/ 19 1017.2F   4/ 7   3/ 9
CAPE LOOKOUT NC  0600   76      50/ 15/ 17 1017.3F
$$


USA.gov is the U.S. government's official web portal to all federal, state and local government web resources and services.